Showing default

KANOPUS-V 5, 43876

Orbit data source: Space-Track

KANOPUS-V 5, 43876 is a payload satellite owned by VNIIEM (CIS) in SSO that was launched on Thu, 27 Dec 2018 UTC via a SOYUZ-2-1A launch vehicle from the Vostochny Cosmodrome (VOSTO). Payloads include a variety of satellites, spacecraft, and rockets equipped with specific instruments for various scientific and technological missions. These include communications satellites like Starlink; space stations such as the ISS; scientific satellites like the Hubble; Earth observation satellites from companies like Planet Labs, Umbra, and HawkEye 360; GPS; miniature CubeSats for education and research; and military/defense satellites.

Loading next visibility...
KANOPUS-V 5 details
Identifier
43876, 2018-111A
Orbit
SSO
Last TLE update7 hours ago
Origin
Flag of CISVNIIEM (CIS)
ManufacturerVNIIEM
MissionOperational Civil Imaging
Bus & MotorKANOPUS, Unknown motor
Mass473 kg wet, 473 kg dry
Launch date (UTC)
2018-12-27 (6 years ago)
Launch vehicle
SOYUZ-2-1A
Launch site
Vostochny Cosmodrome (VOSTO)
Object type
Payload
Rocket body
Debris
Shape & HBRBox + 2 Pan, 6 m
Radar Cross Section1.665 m², Large (>1 m²)

Expand to show TLE details & history

TLE from 7 hours ago
0 KANOPUS-V 5
1 43876U 18111A   24361.49014500  .00007598  00000-0  33366-3 0  9992
2 43876  97.3882 265.9704 0001882  89.8604 270.2848 15.22207510330927
Epoch: 2024-12-26T11:45Z
Definitive object data (Epoch: 2024-12-26T11:45:48.528Z)
Latitude
Longitude-5.95059°
Altitude502.271 km
Speed7.613 km/s
True Right ascension17h 43m 52s
True Declination0° 00' 00"
Sunlit
Object was in daylight at TLE epoch
Visualization TLE readout
Latitude40.88412°
Longitude-179.25747°
Altitude504.312 km
Speed7.617 km/s
Apparent Right ascension06h 07m 09s
Apparent Declination2° 20' 02"
Sunlit
Object is in full shadow
Visualization observer readout
Local Sidereal Time18:03:26
Azimuth358.619° N
Elevation-47.741°
Doppler factor1
Orbital elements
Apogee altitude497.439 km
Perigee altitude494.852 km
Semi-major axis6,874.283 km
Eccentricity0.0001882
Inclination97.3882°
RAAN265.9704°
Arg. of periapsis89.8604°
True anomaly270.26323°
Mean anomaly270.2848°
Eccentric anomaly270.27402°
Mean motion3.80805 °/min
BSTAR0.00033366
Orbital period94.54 mins
Loading maneuver chart data...
Loading historical data...
Loading historical data...
Loading historical data...
Loading historical data...
Loading historical data...
Loading historical data...
Loading historical data...

KANOPUS-V 5 Visibility forecast

Observer location: undefined°, undefined

Span
Click to sort rows by Start time (UTC) header in descending order
Start Az.
Max El. time (UTC)
Max El. Az.
Max El.
End time (UTC)
End Az.
5 mins2024-12-27 07:15:54.022Z342.015° N2024-12-27 07:17:54.022Z291.684° WNW29.132°2024-12-27 07:20:54.022Z224.851° SW
5 mins2024-12-27 17:52:54.022Z163.118° S2024-12-27 17:54:54.022Z92.114° ESE44.774°2024-12-27 17:57:54.022Z350.132° N
|